SCP
0 0 0 0 0 0 0 0 0 0 0 0 0 0 0 0 0 0 0 0 0 0 0 0 0 0 0 0 0 0 0 0 0 0 0 0 0 0 0 0 0 0 0 0
0 0 0 0 0 0 0 0 0 0 0 0 0 0 0 0 0 0 0 0 0 0 0 0 0 0 0 0 0 0 0 0 0 0 0 0 0 0 0 0 0 0 0 0
0 0 0 0 0 0 0 0 0 0 0 0 0 0 0 0 0 0 0 0 0 0 0 0 0 0 0 0 0 0 0 0 0 0 0 0 0 0 0 0 0 0 0 0
0 0 0 0 0 0 0 0 0 0 0 0 0 0 0 0 0 0 0 0 0 0 0 0 0 0 0 0 0 0 0 0 0 0 0 0 0 0 0 0 0 0 0 0
0 0 0 0 0 0 0 0 0 0 0 0 0 0 0 0 0 0 0 0 0 0 0 0 0 0 0 0 0 0 0 0 0 0 0 0 0 0 0 0 0 0 0 0
0 0 0 0 0 0 0 0 0 0 0 0 0 0 0 0 0 0 0 0 0 0 0 0 0 0 0 0 0 0 0 0 0 0 0 0 0 0 0 0 0 0 0 0
0 0 0 0 0 0 0 0 0 0 0 0 0 0 0 0 0 0 0 0 0 0 0 0 0 0 0 0 0 0 0 0 0 0 0 0 0 0 0 0 0 0 0 0
0 0 0 0 0 0 0 0 0 0 0 0 0 0 0 0 0 0 0 0 0 0 0 0 0 0 0 0 0 0 0 0 0 0 0 0 0 0 0 0 0 0 0 0
0 0 0 0 0 0 0 0 0 0 0 0 0 0 0 0 0 0 0 0 0 0 0 0 0 0 0 0 0 0 0 0 0 0 0 0 0 0 0 0 0 0 0 0
0 0 0 0 0 0 0 0 0 0 0 0 0 0 0 0 0 0 0 0 0 0 0 0 0 0 0 0 0 0 0 0 0 0 0 0 0 0 0 0 0 0 0 0
0 0 0 0 0 0 0 0 0 0 0 0 0 0 0 0 0 0 0 0 0 0 0 0 0 0 0 0 0 0 0 0 0 0 0 0 0 0 0 0 0 0 0 0
0 0 0 0 0 0 0 0 0 0 0 0 0 0 0 0 0 0 0 0 0 0 0 0 0 0 0 0 0 0 0 0 0 0 0 0 0 0 0 0 0 0 0 0
0 0 0 0 0 0 0 0 0 0 0 0 0 0 0 0 0 0 0 0 0 0 0 0 0 0 0 0 0 0 0 0 0 0 0 0 0 0 0 0 0 0 0 0
0 0 0 0 0 0 0 0 0 0 0 0 0 0 0 0 0 0 0 0 0 0 0 0 0 0 0 0 0 0 0 0 0 0 0 0 0 0 0 0 0 0 0 0
0 0 0 0 0 0 0 0 0 0 0 0 0 0 0 0 0 0 0 0 0 0 0 0 0 0 0 0 0 0 0 0 0 0 0 0 0 0 0 0 0 0 0 0
0 0 0 0 0 0 0 0 0 0 0 0 0 0 0 0 0 0 0 0 0 0 0 0 0 0 0 0 0 0 0 0 0 0 0 0 0 0 0 0 0 0 0 0
0 0 0 0 0 0 0 0 0 0 0 0 0 0 0 0 0 0 0 0 0 0 0 0 0 0 0 0 0 0 0 0 0 0 0 0 0 0 0 0 0 0 0 0
0 0 0 0 0 0 0 0 0 0 0 0 0 0 0 0 0 0 0 0 0 0 0 0 0 0 0 0 0 0 0 0 0 0 0 0 0 0 0 0 0 0 0 0
0 0 0 0 0 0 0 0 0 0 0 0 0 0 0 0 0 0 0 0 0 0 0 0 0 0 0 0 0 0 0 0 0 0 0 0 0 0 0 0 0 0 0 0
0 0 0 0 0 0 0 0 0 0 0 0 0 0 0 0 0 0 0 0 0 0 0 0 0 0 0 0 0 0 0 0 0 0 0 0 0 0 0 0 0 0 0 0
0 0 0 0 0 0 0 0 0 0 0 0 0 0 0 0 0 0 0 0 0 0 0 0 0 0 0 0 0 0 0 0 0 0 0 0 0 0 0 0 0 0 0 0
0 0 0 0 0 0 0 0 0 0 0 0 0 0 0 0 0 0 0 0 0 0 0 0 0 0 0 0 0 0 0 0 0 0 0 0 0 0 0 0 0 0 0 0
0 0 0 0 0 0 0 0 0 0 0 0 0 0 0 0 0 0 0 0 0 0 0 0 0 0 0 0 0 0 0 0 0 0 0 0 0 0 0 0 0 0 0 0
0 0 0 0 0 0 0 0 0 0 0 0 0 0 0 0 0 0 0 0 0 0 0 0 0 0 0 0 0 0 0 0 0 0 0 0 0 0 0 0 0 0 0 0
0 0 0 0 0 0 0 0 0 0 0 0 0 0 0 0 0 0 0 0 0 0 0 0 0 0 0 0 0 0 0 0 0 0 0 0 0 0 0 0 0 0 0 0
0 0 0 0 0 0 0 0 0 0 0 0 0 0 0 0 0 0 0 0 0 0 0 0 0 0 0 0 0 0 0 0 0 -0 -0 -0 -0 0 0 0 0 0 0 0
0 0 0 0 0 0 0 0 0 0 0 0 0 0 0 0 0 0 0 0 0 0 0 0 0 0 0 0 0 0 0 -0 -0 0 0 -0 -0 -0 0 0 0 0 0 0
Wind_Speed
8 7 9 10 9 6 5 5 5 2 4 9 12 14 15 14 14 13 12 11 11 10 10 9 10 9 9 9 8 9 9 9 8 7 6 6 6 6 5 5 7 5 6 7
10 10 10 9 7 4 3 3 2 3 5 10 14 14 14 14 14 13 13 12 12 11 10 10 9 9 9 8 7 7 8 8 7 6 6 6 6 6 5 5 6 6 7 8
9 10 10 4 4 3 3 4 4 3 8 14 15 15 15 15 14 13 13 13 12 11 10 9 9 8 9 8 7 7 7 7 7 6 6 6 7 6 6 6 6 5 6 7
7 8 5 2 3 3 4 7 8 11 14 14 14 13 12 13 14 14 13 13 11 10 9 8 8 8 7 7 7 7 6 6 6 6 7 6 6 6 5 4 4 4 5 6
5 4 2 2 2 2 3 5 8 13 15 15 16 14 9 10 12 12 12 12 10 9 9 8 7 7 7 7 7 7 6 6 6 7 7 6 6 5 4 4 4 4 4 5
6 6 2 0 1 2 4 6 9 12 15 16 14 8 8 12 13 13 12 10 9 8 9 8 7 7 7 6 6 6 6 6 6 6 6 6 5 4 3 3 3 4 5 5
8 4 2 3 3 2 1 5 9 11 13 13 8 7 15 17 14 14 13 12 10 9 8 7 6 6 6 6 6 6 6 6 6 5 5 5 4 3 2 3 3 4 4 4
4 1 3 6 4 6 7 9 11 12 13 13 14 18 19 17 16 15 13 12 10 9 8 7 6 7 7 6 6 6 6 6 5 3 4 5 4 3 2 2 2 2 3 4
2 4 5 8 8 8 10 12 13 14 15 17 18 19 18 17 15 14 13 11 9 10 9 7 6 6 7 6 5 5 5 5 4 4 3 3 3 2 1 1 1 2 2 3
5 8 8 9 10 11 13 14 15 16 17 18 19 19 18 16 14 13 12 11 9 9 9 8 7 7 6 6 5 6 6 5 4 4 3 2 2 2 3 3 3 3 3 3
7 10 10 10 11 13 15 16 17 17 17 18 19 19 17 15 14 12 11 9 9 9 9 9 8 7 7 6 5 5 5 4 4 4 4 4 6 6 6 6 5 5 5 5
5 9 9 12 13 15 15 16 17 17 18 17 17 18 17 14 13 12 11 10 9 9 9 9 8 8 7 6 6 5 4 3 3 3 3 3 5 6 9 7 7 8 7 5
9 12 15 15 15 15 15 16 17 17 18 17 16 16 16 14 12 12 12 11 10 10 10 9 9 8 7 6 5 4 3 2 2 2 3 3 4 4 5 3 3 3 3 3
16 17 17 16 16 15 17 17 17 18 17 16 15 15 14 14 13 12 12 11 10 10 10 9 9 8 7 6 5 4 4 3 1 2 2 2 3 3 4 4 4 4 3 3
13 13 16 17 17 17 17 17 17 17 17 16 15 14 14 14 13 12 11 11 11 10 9 9 9 8 7 6 5 4 3 3 1 1 2 2 2 3 3 3 3 4 5 4
15 17 18 18 18 17 17 18 17 17 16 16 15 14 14 13 13 12 12 11 10 9 9 8 8 7 7 6 5 3 3 2 1 1 2 2 2 2 3 2 2 3 3 2
18 18 18 18 18 17 17 16 16 16 16 16 15 15 15 14 13 13 12 11 9 8 8 7 7 7 7 6 5 4 5 5 3 3 2 2 2 2 2 2 2 2 3 3
15 17 17 18 17 17 17 17 16 16 16 16 16 15 15 14 13 13 12 10 9 9 8 8 7 6 6 5 3 2 3 5 4 3 3 2 1 2 2 2 2 2 4 5
16 17 17 17 17 16 16 16 17 16 16 16 16 15 14 13 12 12 11 11 10 9 8 7 5 5 5 4 3 3 3 4 3 4 4 3 3 2 2 1 1 2 1 2
18 18 18 18 17 16 16 16 16 15 15 15 15 14 13 13 13 12 11 9 7 7 8 8 7 6 6 5 4 5 4 4 4 5 5 5 4 3 2 1 1 1 1 1
18 19 19 18 17 17 16 16 16 16 15 15 15 14 13 13 12 11 10 8 7 9 9 9 6 6 6 5 5 6 4 4 4 4 4 4 3 3 2 1 1 1 1 0
18 18 18 17 17 16 15 15 15 16 15 15 15 14 14 13 13 11 9 6 9 10 8 8 8 5 4 4 6 6 5 4 4 4 4 3 3 3 3 2 1 1 1 1
16 16 17 17 17 16 16 15 15 15 15 15 14 14 13 11 10 9 8 7 10 10 8 7 8 9 6 5 6 6 4 4 4 3 4 4 3 3 3 3 2 1 1 1
16 16 16 16 16 16 16 15 14 12 14 14 13 13 12 10 9 9 8 10 12 12 7 7 12 10 7 6 7 6 4 5 5 4 4 5 4 4 3 3 3 3 3 3
16 16 16 17 16 13 14 14 14 14 14 11 13 14 11 9 9 8 8 11 13 13 9 9 11 10 8 8 8 7 5 4 3 3 3 3 4 4 4 4 3 3 3 3
14 13 13 12 11 10 12 12 12 12 12 11 11 12 11 9 10 9 8 12 15 11 10 9 10 10 9 9 9 8 5 4 4 4 4 3 4 4 3 4 4 4 3 3
15 12 11 12 12 12 12 12 12 13 12 12 12 12 11 10 10 10 11 11 12 11 10 10 11 11 10 10 10 8 7 6 5 5 5 5 5 4 4 5 4 4 4 4
Wind_Direction
282 263 253 262 267 274 286 305 317 338 153 163 153 150 147 143 140 137 134 130 125 121 117 114 111 110 110 109 109 110 108 103 101 101 99 95 91 87 86 87 86 78 77 76
293 283 273 275 283 299 304 308 318 97 101 132 133 136 142 145 145 143 140 137 131 126 123 121 119 116 114 110 111 111 110 110 111 110 106 102 98 93 89 83 81 79 75 73
296 298 289 286 331 330 344 9 6 49 116 131 136 145 151 152 150 147 143 138 133 131 128 127 125 123 122 121 118 112 110 111 111 108 104 100 100 96 90 86 84 83 85 84
290 302 290 5 359 40 56 50 66 101 124 134 136 136 140 150 149 145 142 137 134 133 130 127 128 127 127 127 123 120 114 109 109 104 100 96 94 94 94 92 92 89 89 93
286 283 291 337 310 41 83 86 98 115 120 121 122 118 123 138 140 140 140 136 132 131 129 132 136 137 134 126 123 118 108 102 101 103 102 100 98 97 97 101 105 101 93 94
273 290 306 276 21 33 104 99 103 121 130 136 145 144 147 145 139 134 132 131 132 133 130 134 139 136 129 126 121 112 107 103 101 101 100 98 96 99 102 106 109 106 94 90
261 275 48 349 330 313 18 116 128 134 140 150 156 120 134 140 137 135 134 135 136 135 133 135 137 130 124 119 113 109 107 107 107 104 104 103 100 102 109 99 95 100 109 104
311 360 84 352 9 55 94 114 119 123 126 122 111 115 128 134 136 137 138 139 137 135 132 132 132 129 122 117 116 112 110 109 110 112 113 111 108 103 105 118 124 122 126 123
50 87 87 63 77 98 110 112 116 118 119 120 122 127 131 133 135 139 141 140 138 136 134 136 135 130 127 127 124 119 116 113 107 101 96 112 124 122 123 129 144 137 134 131
116 106 100 94 94 98 105 112 115 118 123 126 127 130 131 133 136 139 140 139 138 138 135 132 131 129 127 127 127 126 123 120 121 118 110 99 80 74 60 43 41 50 60 84
114 121 114 104 103 106 108 112 115 119 124 127 130 132 134 135 136 138 139 139 142 140 136 136 136 133 130 126 126 126 127 131 129 112 100 85 74 54 60 56 50 45 41 48
112 140 129 121 118 119 121 121 121 122 123 128 131 133 135 135 137 140 141 143 141 139 138 139 138 135 134 135 136 139 146 153 145 142 141 127 117 97 61 79 81 74 66 63
111 116 115 121 123 124 124 123 124 125 127 129 131 133 134 135 139 141 143 144 142 141 139 139 138 138 137 136 140 143 140 137 138 143 146 138 143 144 139 112 73 71 75 74
109 114 122 125 124 124 123 122 123 124 126 128 131 133 135 136 139 143 145 144 143 141 140 140 140 140 140 141 146 149 146 135 156 151 142 139 156 156 152 158 166 164 184 219
124 125 126 126 125 125 126 126 127 128 129 131 135 136 139 141 143 144 144 145 146 146 145 144 144 144 148 152 158 164 161 149 158 139 148 141 148 142 145 156 164 159 157 190
128 126 130 133 134 136 136 137 135 136 137 139 140 142 143 142 142 143 146 149 150 150 149 148 146 149 153 157 160 151 128 114 207 211 171 158 147 135 134 144 153 147 151 166
140 143 145 144 144 145 145 143 140 141 142 144 144 142 142 143 144 146 150 152 152 149 148 149 151 155 161 168 187 185 164 158 200 227 179 141 138 139 138 154 147 132 117 99
151 151 150 150 149 148 146 143 143 144 145 145 144 145 147 149 150 150 150 149 148 147 151 156 157 165 166 172 196 216 179 172 186 177 136 118 130 158 161 160 136 128 147 163
150 149 149 151 150 148 147 145 146 147 148 148 148 150 151 151 149 149 150 154 156 156 158 150 150 181 173 172 219 232 211 170 156 139 129 136 208 183 157 156 127 107 118 144
148 149 151 151 150 149 147 147 148 149 150 150 150 152 153 152 153 155 158 163 167 162 155 152 173 196 189 183 223 245 211 180 166 158 168 186 187 163 165 172 138 114 93 78
150 152 153 152 150 150 150 150 151 152 153 155 156 157 154 155 159 161 169 170 162 154 152 156 195 205 199 183 206 247 220 191 182 179 183 179 168 178 182 183 175 155 153 118
152 153 153 151 151 150 150 152 154 155 155 158 160 158 157 161 166 171 186 168 152 150 166 180 201 192 168 186 228 240 209 194 201 190 172 165 178 195 192 196 205 197 172 158
153 153 153 153 152 150 151 156 158 159 162 164 164 163 166 169 172 177 181 163 159 168 193 188 166 148 155 220 254 253 210 202 218 201 170 174 200 210 201 201 216 214 178 195
152 153 153 152 151 154 159 162 160 162 166 167 167 168 171 174 179 190 181 161 161 168 194 157 155 160 181 231 254 253 221 208 221 222 199 191 200 206 204 203 216 214 201 215
155 154 155 156 159 162 162 162 161 166 171 172 171 173 180 185 185 190 172 160 160 170 178 170 177 178 204 232 247 246 235 217 217 235 219 210 212 207 203 209 219 227 225 220
155 159 159 165 163 162 164 167 170 173 177 175 174 178 185 187 188 182 167 168 173 186 194 179 185 197 218 231 242 244 232 197 196 221 234 238 241 237 220 215 221 231 235 229
160 159 160 169 170 172 173 175 177 179 181 180 178 180 186 187 187 185 181 176 178 188 205 197 192 199 213 226 235 237 231 222 218 221 225 232 239 240 232 221 225 232 235 232